Weather History for Buffalo, WY

Change the Weather History Date:

Tuesday, February 26, 2013

  Actual Average Record
Temperature  
Mean Temperature 26 °F 30 °F  
Max Temperature 31 °F 40 °F 53 °F (2006)
Min Temperature 21 °F 19 °F -7 °F (2011)
Degree Days  
Heating Degree Days 39 35  
Month to date heating degree days 992 964  
Since 1 July heating degree days 4870 5171  
Cooling Degree Days 0 0  
Month to date cooling degree days 0 0  
Year to date cooling degree days 0 0  
Moisture  
Dew Point 18 °F    
Average Humidity 69    
Maximum Humidity 85    
Minimum Humidity 53    
Precipitation  
Precipitation T in 0.01 in 0.01 in (2009)
Month to date precipitation 0.13 0.32  
Year to date precipitation 0.61 0.74  
Sea Level Pressure  
Sea Level Pressure 30.06 in    
Wind  
Wind Speed 20 mph (NNW)    
Max Wind Speed 33 mph    
Max Gust Speed 43 mph    
Visibility 9 miles    
Events Snow    
T = Trace of Precipitation, MM = Missing Value Source: NWS Daily Summary

Daily Weather History Graph

Daily Weather History Graph

Search for Another Location

Airport:

Trip Planner

Search our weather history database for the weather conditions in past years. The results will help you decide how hot, cold, wet, or windy it might be!

Date:

Astronomy

Feb. 26, 2013 Rise Set
Actual Time 6:48 AM MST 5:51 PM MST
Civil Twilight 6:19 AM MST 6:20 PM MST
Nautical Twilight 5:45 AM MST 6:54 PM MST
Astronomical Twilight 5:12 AM MST 7:27 PM MST
Moon 7:16 PM MST (2/26) 6:48 AM MST (2/26)
Length of Visible Light 12h 01m
Length of Day
11h 02m
Full, 99% of the Moon is Illuminated
Feb 26
Full
Mar 4
Last Quarter
Mar 11
New
Mar 19
First Quarter
Mar 27
Full

Hourly Weather History & Observations

Time (MST) Temp. Windchill Dew Point Humidity Pressure Visibility Wind Dir Wind Speed Gust Speed Precip Events Conditions
12:53 AM 28.9 °F 14.8 °F 21.9 °F 75% 29.86 in 10.0 mi North 24.2 mph 34.5 mph N/A   Overcast
1:53 AM 28.0 °F 13.9 °F 24.1 °F 85% 29.85 in 10.0 mi NNW 23.0 mph 29.9 mph N/A   Overcast
2:53 AM 28.0 °F 13.9 °F 21.0 °F 75% 29.86 in 10.0 mi NNW 23.0 mph 35.7 mph N/A   Overcast
3:53 AM 28.0 °F 13.6 °F 19.0 °F 69% 29.88 in 10.0 mi NW 24.2 mph 36.8 mph N/A   Overcast
4:53 AM 28.0 °F 13.9 °F 19.0 °F 69% 29.90 in 10.0 mi NNW 23.0 mph 29.9 mph N/A   Overcast
5:53 AM 28.0 °F 13.0 °F 19.0 °F 69% 29.94 in 10.0 mi NW 26.5 mph 35.7 mph N/A   Overcast
6:53 AM 27.0 °F 12.5 °F 18.0 °F 69% 29.99 in 10.0 mi NNW 23.0 mph 29.9 mph N/A   Overcast
7:53 AM 27.0 °F 12.8 °F 17.1 °F 66% 30.02 in 10.0 mi NNW 21.9 mph 32.2 mph N/A   Overcast
8:53 AM 28.0 °F 13.3 °F 17.1 °F 63% 30.01 in 10.0 mi NNW 25.3 mph 35.7 mph N/A   Scattered Clouds
9:53 AM 30.0 °F 15.4 °F 15.1 °F 54% 30.01 in 10.0 mi NNW 27.6 mph 38.0 mph N/A   Clear
10:53 AM 30.0 °F 15.2 °F 17.1 °F 59% 30.02 in 10.0 mi NNW 28.8 mph 36.8 mph N/A   Overcast
11:53 AM 30.0 °F 15.2 °F 16.0 °F 56% 30.04 in 10.0 mi NNW 28.8 mph 39.1 mph N/A   Overcast
12:53 PM 30.0 °F 15.4 °F 17.1 °F 59% 30.04 in 10.0 mi North 27.6 mph 36.8 mph N/A   Partly Cloudy
1:53 PM 30.0 °F 16.9 °F 17.1 °F 59% 30.06 in 10.0 mi North 21.9 mph 35.7 mph N/A   Clear
2:53 PM 30.0 °F 16.6 °F 17.1 °F 59% 30.08 in 10.0 mi NNW 23.0 mph - N/A   Clear
3:53 PM 30.9 °F 18.7 °F 17.1 °F 57% 30.11 in 10.0 mi NNW 19.6 mph 26.5 mph N/A   Clear
4:53 PM 28.9 °F 19.8 °F 17.1 °F 61% 30.13 in 10.0 mi North 10.4 mph - N/A   Clear
5:53 PM 25.0 °F 18.1 °F 15.1 °F 66% 30.17 in 10.0 mi NNW 5.8 mph - N/A   Clear
6:53 PM 28.0 °F 16.5 °F 15.1 °F 58% 30.18 in 10.0 mi NNW 15.0 mph 26.5 mph N/A   Scattered Clouds
7:53 PM 28.0 °F 16.5 °F 16.0 °F 61% 30.20 in 10.0 mi NNW 15.0 mph 24.2 mph N/A   Overcast
8:09 PM 28.4 °F 15.1 °F 21.2 °F 74% 30.11 in 1.8 mi NW 20.7 mph 32.2 mph 0.00 in Snow Light Snow
8:35 PM 26.6 °F 14.7 °F 21.2 °F 80% 30.12 in 3.0 mi NNW 15.0 mph 25.3 mph 0.00 in Snow Light Snow
8:51 PM 26.6 °F 14.7 °F 21.2 °F 80% 30.12 in 10.0 mi NNW 15.0 mph - 0.00 in   Overcast
8:53 PM 26.1 °F 14.5 °F 21.0 °F 81% 30.22 in 10.0 mi NNW 13.8 mph - 0.00 in   Overcast
9:53 PM 27.0 °F 15.6 °F 21.0 °F 78% 30.22 in 10.0 mi NW 13.8 mph - 0.00 in   Overcast
10:53 PM 23.0 °F 17.0 °F 18.0 °F 81% 30.25 in 10.0 mi NW 4.6 mph - N/A   Partly Cloudy
11:53 PM 21.9 °F 15.7 °F 17.1 °F 82% 30.25 in 10.0 mi NNW 4.6 mph - N/A   Partly Cloudy